Weather in Billings

United States     45°46′58″N   108°30′15″W
temp.,
°C
wind,
m/s
gust,
m/s
humid.,
%
clouds,
%
prec.,
mm/h
press.,
hPa
HPBL,
m
23 may, mon
mon2300:00+4wsw348414 1.8 102153
03:00+4sw33805 0.0 102127
06:00+3sw33780 0.0 102142
09:00+10wsw44510 0.0 1019480
12:00+15wnw14305 0.0 10162542
15:00+17n242490 0.0 10142994
18:00+18e232466 0.0 10122858
21:00+11se334591 0.0 101317
24 may, tue
tue2400:00+9ssw334859 0.0 101316
03:00+7w0054100 0.0 101310
06:00+7wsw1160100 0.0 101410
09:00+13sw2349100 0.0 1014372
12:00+18sw223448 0.0 10122069
15:00+19sse333089 0.0 10102666
18:00+19sse553771 0.0 10101697
21:00+13ene1163100 0.0 101012
25 may, wed
wed2500:00+11se1165100 0.0 101010
03:00+11ene0066100 0.0 101010
06:00+10wsw2263100 0.0 101015
09:00+16w3447100 0.0 1011507
12:00+20w6103694 0.0 10092415
15:00+19nw254886 0.0 1008292
18:00+23nnw573249 0.0 10061310
21:00+15ene33526 0.0 100811
26 may, thu
thu2600:00+12e226339 0.0 101110
03:00+10ese11735 0.0 101110
06:00+10sse11725 0.0 101210
09:00+17sw015061 0.0 1012476
12:00+23nw123791 0.0 10111163
15:00+26ese332816 0.0 10081790
18:00+25ese66335 0.0 10061346
21:00+19wsw3355100 0.1 100824
27 may, fri
fri2700:00+16sse1162100 0.3 100611
03:00+15ssw1266100 0.0 100511
06:00+15wsw3473100 0.0 100587
09:00+19w4759100 0.0 1004308
12:00+24w6836100 0.0 10041818
15:00+22wnw14124290 0.1 10051093
18:00+21ssw464760 0.6 1003164
21:00+16nne1160100 0.0 100312